World > North America > United States > Pennsylvania

Hourly Etown, PA Regional Weather

Feedback E-mail the Weather

Quick WX

Etown, PA Weather Maps

°F °C°F °C
Etown Weather Map
UTC Time: 7/7/2022, 07:35
Your Time:

Etown, PA Regional Weather

Expires:202207070800;;883243
ASUS41 KPHI 070714
RWRPHI

REGIONAL WEATHER ROUNDUP
NATIONAL WEATHER SERVICE MOUNT HOLLY NJ
300 AM EDT THU JUL 07 2022

NOTE:  "FAIR" INDICATES FEW OR NO CLOUDS BELOW 12,000 FEET WITH NO
SIGNIFICANT WEATHER AND/OR OBSTRUCTIONS TO VISIBILITY.

 * = STATION DOES NOT REPORT PRECIPITATION (E.G. RAIN, SNOW, ETC.) 
        OR FOG.


PAZ043-044-047-054-055-060>062-066>071-070800-
EASTERN PENNSYLVANIA
  
CITY           SKY/WX    TMP DP  RH WIND       PRES   REMARKS
PHILADELPHIA   RAIN      74  71  91 W8        29.93R FOG              
NORTH PHILA    CLOUDY    76  64  66 E5        29.93S                  
BLUE BELL*     CLOUDY    73  67  83 CALM      29.94R                  
DOYLESTOWN     MOCLDY    74  63  68 CALM      29.93S                  
QUAKERTOWN*    MOCLDY    73  64  73 NE3       29.95R                  
PERKASIE*      CLOUDY    72  66  83 NE5       29.95S                  
POTTSTOWN      CLOUDY    72  62  71 SW5       29.96R                  
LANCASTER      LGT RAIN  71  65  81 SE3       29.94S                  
COATESVILLE    LGT RAIN  68  68 100 CALM      29.96F                  
WEST CHESTER   RAIN      72  66  83 CALM      29.95S                  
READING        LGT RAIN  75  65  70 W3        29.93R                  
ALLENTOWN      CLOUDY    71  62  73 NE7       29.95R                  
QN CITY/ALNTWN CLOUDY    73  63  68 NE5       29.95S                  
MOUNT POCONO   CLOUDY    66  57  72 NE7       30.01F                  
HAZLETON       CLOUDY    68  59  73 CALM      30.03S                  
LEHIGHTON      CLOUDY    66  63  88 CALM      29.96S                  
WILKES BARRE   CLOUDY    67  60  78 E3        29.99S                  

$$

SKY/WX - Weather  TMP - Temperature  DP - Dew Point  RH - Humidity
WIND - Wind Direction/Speed PRES - Barometric Pressure VSB - Visibility
WCI - Wind Chill Index E13G22 Wind - East Wind 13 mph/Gusts of 22 mph

Trending Headlines

Etown Radar Loop



Etown Quick Facts


National Two Day Weather Forecast


E-mail the Etown Weather Forecast

Voice your opinion or tell us about page issues...